Погода в Низовье

Россия / Калининградская область     54°42′02″N   20°44′28″E
темп.,
°C
ветер,
м/с
пор.,
м/с
влажн.,
%
обл.,
%
осадки,
мм/ч
давл.,
гПа
погр.,
м
20 июня, вс
вс2023:00+20ююв33903 0.0 101633
02:00+21ю498198 0.0 1016186
05:00+21ююв4108169 0.0 1015228
08:00+23ююв57750 0.0 1015360
11:00+26ююв56700 0.3 1016912
14:00+28ююв67550 0.5 10141571
17:00+28ююв47610 0.0 10131765
20:00+25юв38800 0.0 1012189
21 июня, пн
пн2123:00+21ююв48870 0.0 1012148
02:00+19ююв4109424 0.0 1012193
05:00+19юв389537 0.0 1012158
08:00+24ююв46770 0.0 1012372
11:00+27юв68622 0.0 10121086
14:00+28ююв685413 0.0 10111578
17:00+28юв47610 0.0 10101663
20:00+24вюв49783 0.0 1009259
22 июня, вт
вт2223:00+20юв38870 0.1 1009153
02:00+19юв37950 0.1 1009132
05:00+18ююв38962 0.0 1009189
08:00+23ю45795 0.0 1010412
11:00+23з448088 0.0 1011536
14:00+24зсз547198 0.0 1012804
17:00+21сз447383 0.0 1014596
20:00+17сз358312 0.1 1014250
23 июня, ср
ср2323:00+13сз22895 0.0 101626
02:00+12сз11860 0.0 101510
05:00+13сз22810 0.0 101618
08:00+18вюв22630 0.0 1016270
11:00+23ссв225461 0.0 1016605
14:00+25ссв32575 0.0 1016664
17:00+23ссв44588 0.0 1015280
20:00+17св3583100 0.9 101582
24 июня, чт
чт2423:00+16св3483100 1.4 101560
02:00+17зюз22925 1.4 101517
05:00+16зюз35952 0.0 1015108
08:00+20зюз568751 0.0 1016433
11:00+22зюз567235 0.0 1017798
14:00+23з556626 0.0 10171066
17:00+23зсз346615 0.0 1017964
20:00+19сз46820 0.0 1017219